Regional Weather Roundup
Issued by NWS Northern Indiana

Home | Current Version | Previous Version | Text Only | Print | Product List | Glossary Off
Versions: 1 2 3 4 5 6 7 8 9 10 11 12 13 14 15 16 17 18 19 20 21 22 23 24 25 26 27 28 29 30 31 32 33 34 35 36 37 38 39 40 41 42 43 44 45 46 47 48 49 50

000
ASUS43 KIWX 310100
RWRIWX

KIWX WEATHER ROUNDUP
NATIONAL WEATHER SERVICE NORTHERN INDIANA
900 PM EDT WED JUL 30 2014

NOTE: "FAIR" INDICATES FEW OR NO CLOUDS BELOW 12,000 FEET WITH NO
SIGNIFICANT WEATHER AND/OR OBSTRUCTIONS TO VISIBILITY.

* THESE STATIONS ARE NOT UNDER NWS QUALITY CONTROL. THEY ALSO MAY NOT
  REPORT WEATHER SUCH AS PRECIPITATION OR FOG.

INZ001>027-310200-
NORTHERN INDIANA

CITY           SKY/WX    TMP DP  RH WIND       PRES   REMARKS
GARY*          PTCLDY    66  61  82 NE6       30.02S
VALPARAISO     CLEAR     66  58  75 CALM      30.02S
KNOX*          CLEAR     66  58  75 N6        30.01S
SOUTH BEND     CLEAR     67  56  67 NW5       30.02R
ELKHART*       CLEAR     68  54  60 CALM      30.02R
GOSHEN         PTCLDY    70  55  59 NW7       30.01R
MONTICELLO*    CLEAR     69  62  77 CALM      30.01R
WARSAW*        CLEAR     68  55  64 NW3       30.02R
ANGOLA*        CLEAR     70  55  60 W3        30.01R
FORT WAYNE     PTCLDY    71  60  68 CALM      30.01S
PERU/GRISSOM   CLEAR     70  65  85 VRB5      30.02R

$$
INZ028>050-310200-
CENTRAL INDIANA

CITY           SKY/WX    TMP DP  RH WIND       PRES   REMARKS
LAFAYETTE      CLEAR     70  63  78 W3        30.01S
KOKOMO*        PTCLDY    70  61  73 W5        30.02R
MUNCIE*        MOCLDY    72  59  63 SW6       30.02S
INDIANAPOLIS   MOCLDY    67  62  84 S8        30.03S

$$
MIZ043>046-050>051-056>058-064>065-071>073-077>080-310200-
SOUTHWEST LOWER MICHIGAN

CITY           SKY/WX    TMP DP  RH WIND       PRES   REMARKS
BATTLE CREEK   CLEAR     66  55  67 W7        30.01R
BENTON HARBOR  CLEAR     60  55  83 CALM      30.01S
COLDWATER*     CLEAR     67  57  70 W6        30.01R
HILLSDALE*     CLEAR     67  56  66 W5        30.01R
HOLLAND        CLEAR     62  52  69 W5        30.02S
GRAND RAPIDS   MOCLDY    67  47  48 W8        30.00S
KALAMAZOO      CLEAR     66  55  67 NW9       30.01S
STURGIS*       CLEAR     66  55  68 CALM      30.01S
THREE RIVERS*  FAIR      67  59  73 NW5       30.02R

$$
OHZ001>008-015>018-024>025-310200-
NORTHWEST OHIO

CITY           SKY/WX    TMP DP  RH WIND       PRES   REMARKS
DEFIANCE       CLEAR     72  55  55 W3        30.00R
FINDLAY        CLEAR     69  58  67 SW7       29.99R
TOLEDO EXPRESS CLEAR     63  55  75 CALM      29.99R
TOLEDO METCALF MOCLDY    64  58  80 SE5       30.00R
LIMA           CLEAR     70  59  68 SW5       30.01S

$$
&&



USA.gov is the U.S. government's official web portal to all federal, state and local government web resources and services.